Regional Weather Roundup
Issued by NWS

Home | Current Version | Previous Version | Graphics & Text | Print | Product List | Glossary On
Versions: 1 2 3 4 5 6 7 8 9 10 11 12 13 14 15 16 17 18 19 20 21 22 23 24 25 26 27 28 29 30 31 32 33 34 35 36 37 38 39 40 41 42 43 44 45 46 47 48 49 50
000
ASUS45 KTFX 211410
RWRMT
MONTANA REGIONAL WEATHER ROUNDUP
NATIONAL WEATHER SERVICE GREAT FALLS MT
700 AM MST SUN JAN 21 2018

NOTE: "FAIR" INDICATES FEW OR NO CLOUDS BELOW 12000 FEET WITH NO
SIGNIFICANT WEATHER AND/OR OBSTRUCTIONS TO VISIBILITY.

MTZ001>007-043-211500-
WEST OF THE DIVIDE

CITY           SKY/WX    TMP DP  RH WIND       PRES   REMARKS
KALISPELL      CLOUDY    26  25  96 CALM      30.11R
MISSOULA       CLOUDY    30  24  78 SE7       30.13S WCI  23
BUTTE          FAIR       3  -2  79 CALM      30.08R
MULLAN PASS    CLOUDY    23  21  92 CALM      30.00S FOG
ANACONDA         N/A     12  10  92 S5        30.09R
DEER LODGE       N/A     14  12  92 CALM      30.12R
EUREKA           N/A     34  25  69 MISG      30.10R
HAMILTON         N/A     27  19  74 S9        30.13S WCI  17
RONAN            N/A     28  25  86 CALM      30.13R
$$

MTZ008-052>055-211500-
SOUTHWEST MONTANA

CITY           SKY/WX    TMP DP  RH WIND       PRES   REMARKS
BOZEMAN        CLOUDY    17  13  84 S6        30.11R WCI   9
DILLON         FAIR      12   7  80 S8        30.08R WCI   0
ENNIS          CLEAR     10   7  85 CALM      30.12R
W YELLOWSTONE  CLOUDY   -17 -22  76 CALM      30.04R
THREE FORKS      N/A     16  13  88 CALM      30.08R
$$

MTZ009-010-012-014-046-048-049-054-211500-
EAST SLOPES AND CENTRAL MONTANA

CITY           SKY/WX    TMP DP  RH WIND       PRES   REMARKS
CUT BANK       FAIR      27  15  61 W20G25    29.94S WCI  13
GREAT FALLS    FAIR      21  15  78 SW8       30.01R WCI  11
MALMSTROM AFB  FAIR      22  17  81 SW13      30.02S WCI  10
HELENA         FAIR      14  12  92 CALM      30.09R
AUGUSTA        FAIR      25  14  63 W13       29.96S WCI  13
BOWMANS CRNR   FAIR      20  15  82 S12       29.99R WCI   7
CHOTEAU          N/A     25  12  58 W6        29.99S WCI  18
FAIRFIELD      FAIR      26  13  57 SW14      29.98R WCI  15
POWER          FAIR      17  10  76 SW10      29.99R WCI   4
RAYNESFORD     FAIR      28  15  57 SW20      30.00F WCI  15
ULM            FAIR      22  17  80 S9        30.02S WCI  12
WHITE SULPHUR    N/A      3   0  85 SE9       30.04R WCI -11
$$

MTZ011-013-016-021-045-047-050-051-211500-
NORTH CENTRAL MONTANA

CITY           SKY/WX    TMP DP  RH WIND       PRES   REMARKS
HAVRE          FAIR      21  15  78 SW14      29.99F WCI   8
LEWISTOWN      FAIR      18  12  77 CALM      30.01R
N BAR RANCH    FAIR      19   9  63 W8        30.02R WCI   9
CHINOOK          N/A     10   7  85 E3        30.00R
DENTON         FAIR      20  15  79 MISG      29.97S
GEYSER         FAIR      20  14  77 W3        30.00S
GRASS RANGE    FAIR      26  15  63 SW12      29.97R WCI  16
STANFORD       FAIR      22  15  71 W10       29.99S WCI  12
WINIFRED       FAIR      24  16  71 SW7       29.99F WCI  16
$$

MTZ017>020-022>027-061-062-211500-
NORTHEAST MONTANA

CITY           SKY/WX    TMP DP  RH WIND       PRES   REMARKS
GLASGOW        FAIR      11   7  84 S3        29.99S
GLENDIVE       FAIR      12   9  87 S7        30.02R WCI   1
JORDAN           N/A     14   9  80 W10       30.00S WCI   1
MALTA          CLEAR      1  -2  85 W6        30.00F WCI -10
SIDNEY         FAIR      10   7  87 S7        30.01S WCI  -1
WOLF POINT     FAIR       6   1  80 W8        30.01F WCI  -7
PLENTYWOOD       N/A     10   9  92 CALM      29.97R
POPLAR           N/A      7   3  85 CALM      30.01F VSB 1/4
$$

MTZ028>42-056>058-211500-
SOUTHCENTRAL AND SOUTHEAST MONTANA

CITY           SKY/WX    TMP DP  RH WIND       PRES   REMARKS
BAKER          FAIR      10   8  92 CALM      30.00R
BILLINGS       FAIR      23  15  71 SW14      30.04R WCI  11
LIVINGSTON     FAIR      12   9  87 NW9       30.06R WCI   0
MILES CITY     FAIR      13  10  88 SW9       30.04R WCI   1
BIG TIMBER     CLEAR     25  16  68 W25G31    30.04R WCI   9
FORSYTH          N/A     16  14  93 CALM      30.06R
HARLOWTON      FAIR      20  15  78 W20       30.02R WCI   5
LAUREL           N/A     19  12  73 W7        30.07R WCI  10
$$

REGIONAL REPORTS...DAKOTAS

CITY           SKY/WX    TMP DP  RH WIND       PRES   REMARKS
WILLISTON      FAIR       6   3  87 CALM      30.00R
MINOT          FAIR      15  11  83 W5        30.00R
DICKINSON      FAIR      19  14  81 W12       29.96R WCI   7
BEACH          FAIR      19  16  86 CALM      30.01F
CROSBY         FAIR      10   9  92 S12       29.98S WCI  -4
TIOGA          FAIR       1   1 100 CALM      29.99R
BISMARCK       FAIR      13  12  96 CALM      30.02S
GRAND FORKS    CLOUDY    22  20  92 N9        30.04R WCI  12
FARGO          FAIR      17  15  92 N8        30.01S WCI   7
BUFFALO SD       N/A     26  17  68 W6        29.92R WCI  19
RAPID CITY     CLOUDY    28  24  85 N7        29.98S WCI  21
$$

REGIONAL REPORTS...WYOMING/IDAHO/WASHINGTON

CITY           SKY/WX    TMP DP  RH WIND       PRES   REMARKS
GILLETTE       CLOUDY    25  17  72 CALM      29.97R
SHERIDAN       FAIR      27  18  69 CALM      30.01R
BUFFALO WY     FAIR      24  13  62 NW7       29.97R WCI  16
CODY           FAIR      20  14  77 W5        30.01R
YELLOWSTONE LA   N/A    -15 -20  78 CALM      30.00R
IDAHO FALLS    FAIR      19  16  88 S6        30.11R WCI  11
SALMON         CLOUDY    18  16  92 SE3       30.18R
BOISE          FAIR      26  22  84 CALM      30.20R
SPOKANE        CLOUDY    32  29  88 SE10      30.06F WCI  24
$$

REGIONAL REPORTS...ALBERTA

CITY           SKY/WX    TMP DP  RH WIND       PRES   REMARKS
CALGARY        MOCLDY    23  12  63 SW8       29.81S WCI  14
CARDSTON         N/A     25  14  63 S3          N/A
EDMONTON         N/A     21  18  86 E6        29.85S VSB 1/8 WCI  14
FORT MCMURRAY  CLEAR      5   1  85 NE2       30.02R
HIGH LEVEL     FLURRIES   9   7  92 N3        29.97S
LETHBRIDGE     PTCLDY    25  16  68 SW9       29.91S WCI  15
LLOYDMINSTER   FOG       19  18  93 E2        29.89  VSB 1/2
MEDICINE HAT   CLEAR     21  18  86 S12       29.92R WCI   9
PEACE RIVER    FLURRIES  16  14  93 NE12      29.82F WCI   3
PINCHER CREEK  CLOUDY    28  18  64 W24G37    29.91R WCI  14
WATERTON GATE    N/A     30  16  55 SW35G52     N/A  WCI  14
$$

REGIONAL REPORTS...SASKATCHEWAN

CITY           SKY/WX    TMP DP  RH WIND       PRES   REMARKS
CORONACH         N/A      7   5  92 SE2         N/A
CYPRESS HILLS    N/A     23  10  58 W3          N/A
ESTEVAN        PTCLDY     5   1  85 S6        29.98S WCI  -6
MOOSE JAW        N/A     12   9  85 S3          N/A
PRINCE ALBERT  FLURRIES  14  10  85 E5        29.96S
REGINA         PTCLDY     9   7  92 SE7       29.94S WCI  -3
ROCKGLEN         N/A     16  14  93 W10         N/A  WCI   3
SASKATOON      FOG       18  14  86 NW3       29.94R VSB 1/2
SWIFT CURRENT  CLEAR     23  16  74 W14       29.87S WCI  11
VAL MARIE        N/A     -2  -8  78 E1          N/A
$$



USA.gov is the U.S. government's official web portal to all federal, state and local government web resources and services.